Morristown, NJ

5:54 PM EDT on July 20, 2017 (GMT -0400)
Morristown Municipal

Weather History for KMMU - November, 2012

Change the Weather History Date:

Friday, November 16, 2012

  Actual Average Record
Temperature  
Mean Temperature 37 °F -  
Max Temperature 48 °F 52 °F 78 °F (1993)
Min Temperature 24 °F 31 °F 12 °F (1933)
Degree Days  
Heating Degree Days 28    
Moisture  
Dew Point 27 °F    
Average Humidity 84    
Maximum Humidity 100    
Minimum Humidity 40    
Precipitation  
Precipitation 0.00 in - - ()
Sea Level Pressure  
Sea Level Pressure 30.35 in    
Wind  
Wind Speed 1 mph (ENE)    
Max Wind Speed 14 mph    
Max Gust Speed -    
Visibility 10 miles    
Events      
Averages and records for this station are not official NWS values.
T = Trace of Precipitation, MM = Missing Value Source: NWS Daily Summary

Daily Weather History Graph

Daily Weather History Graph

Search for Another Location

Airport or City:

Trip Planner

Search our weather history database for the weather conditions in past years. The results will help you decide how hot, cold, wet, or windy it might be!

Date:

Astronomy

Nov. 16, 2012 Rise Set
Actual Time 6:46 AM EST 4:38 PM EST
Civil Twilight 6:16 AM EST 5:07 PM EST
Nautical Twilight 5:43 AM EST 5:40 PM EST
Astronomical Twilight 5:11 AM EST 6:13 PM EST
Moon 9:38 AM EST (11/16) 7:34 PM EST (11/16)
Length of Visible Light 10h 50m
Length of Day
9h 51m
Waxing Crescent, 11% of the Moon is Illuminated
Nov 16
Waxing Crescent
Nov 20
First Quarter
Nov 28
Full
Dec 6
Last Quarter
Dec 13
New

Hourly Weather History & Observations

Time (EST) Temp. Windchill Dew Point Humidity Pressure Visibility Wind Dir Wind Speed Gust Speed Precip Events Conditions
12:15 AM 28.4 °F - 26.6 °F 93% 30.31 in 10.0 mi Calm Calm - N/A   Clear
12:35 AM 28.4 °F - 28.4 °F 100% 30.30 in 10.0 mi Calm Calm - N/A   Clear
12:55 AM 28.4 °F - 28.4 °F 100% 30.30 in 10.0 mi Calm Calm - N/A   Clear
1:15 AM 28.4 °F - 28.4 °F 100% 30.30 in 10.0 mi Calm Calm - N/A   Clear
1:35 AM 28.4 °F - 28.4 °F 100% 30.30 in 10.0 mi Calm Calm - N/A   Clear
1:55 AM 28.4 °F - 28.4 °F 100% 30.31 in 10.0 mi Calm Calm - N/A   Clear
2:15 AM 30.2 °F - 28.4 °F 93% 30.31 in 10.0 mi Calm Calm - N/A   Clear
2:35 AM 30.2 °F - 28.4 °F 93% 30.31 in 10.0 mi Calm Calm - N/A   Clear
2:55 AM 28.4 °F - 28.4 °F 100% 30.31 in 10.0 mi Calm Calm - N/A   Clear
3:15 AM 30.2 °F - 30.2 °F 100% 30.31 in 10.0 mi Calm Calm - N/A   Clear
3:35 AM 28.4 °F - 28.4 °F 100% 30.31 in 10.0 mi Calm Calm - N/A   Clear
3:55 AM 28.4 °F - 28.4 °F 100% 30.30 in 10.0 mi Calm Calm - N/A   Clear
4:15 AM 28.4 °F - 28.4 °F 100% 30.31 in 10.0 mi Calm Calm - N/A   Clear
4:35 AM 30.2 °F - 30.2 °F 100% 30.31 in 10.0 mi Calm Calm - N/A   Clear
4:55 AM 28.4 °F - 28.4 °F 100% 30.31 in 10.0 mi Calm Calm - N/A   Clear
5:15 AM 30.2 °F - 30.2 °F 100% 30.31 in 10.0 mi Calm Calm - N/A   Clear
5:35 AM 30.2 °F - 30.2 °F 100% 30.31 in 10.0 mi Calm Calm - N/A   Clear
6:45 AM 28.4 °F - 26.6 °F 93% 30.32 in 10.0 mi Calm Calm - N/A   Mostly Cloudy
7:45 AM 30.2 °F - 28.4 °F 93% 30.32 in 15.0 mi Calm Calm - N/A   Overcast
8:55 AM 39.2 °F 35.0 °F 28.4 °F 65% 30.34 in 10.0 mi ENE 5.8 mph - N/A   Mostly Cloudy
9:45 AM 39.2 °F 34.2 °F 26.6 °F 61% 30.37 in 10.0 mi East 6.9 mph - N/A   Mostly Cloudy
10:45 AM 41.0 °F 37.1 °F 26.6 °F 57% 30.37 in 10.0 mi NE 5.8 mph - N/A   Overcast
11:45 AM 44.6 °F 38.1 °F 24.8 °F 46% 30.33 in 10.0 mi ENE 13.8 mph - N/A   Overcast
12:45 PM 46.4 °F 42.4 °F 26.6 °F 46% 30.33 in 10.0 mi ENE 8.1 mph - N/A   Overcast
1:45 PM 48.2 °F - 24.8 °F 40% 30.31 in 10.0 mi ENE 10.4 mph - N/A   Scattered Clouds
2:45 PM 48.2 °F - 24.8 °F 40% 30.32 in 10.0 mi NE 3.5 mph - N/A   Mostly Cloudy
3:45 PM 48.2 °F - 24.8 °F 40% 30.34 in 10.0 mi NE 6.9 mph - N/A   Mostly Cloudy
4:45 PM 44.6 °F 41.4 °F 23.0 °F 43% 30.36 in 10.0 mi NE 5.8 mph - N/A   Mostly Cloudy
5:45 PM 35.6 °F - 24.8 °F 65% 30.38 in 10.0 mi Calm Calm - N/A   Clear
6:45 PM 33.8 °F - 24.8 °F 70% 30.39 in 10.0 mi Calm Calm - N/A   Clear
7:45 PM 30.2 °F - 26.6 °F 86% 30.41 in 10.0 mi Calm Calm - N/A   Clear
8:45 PM 30.2 °F - 26.6 °F 86% 30.42 in 10.0 mi Calm Calm - N/A   Clear
9:45 PM 28.4 °F - 24.8 °F 86% 30.44 in 10.0 mi Calm Calm - N/A   Clear
9:55 PM 26.6 °F - 24.8 °F 93% 30.42 in 10.0 mi Calm Calm - N/A   Clear
10:15 PM 26.6 °F - 24.8 °F 93% 30.43 in 10.0 mi Calm Calm - N/A   Clear
10:35 PM 26.6 °F - 26.6 °F 100% 30.44 in 10.0 mi Calm Calm - N/A   Clear
10:55 PM 26.6 °F - 26.6 °F 100% 30.44 in 10.0 mi Calm Calm - N/A   Clear
11:15 PM 26.6 °F - 26.6 °F 100% 30.45 in 10.0 mi Calm Calm - N/A   Clear
11:35 PM 26.6 °F - 24.8 °F 93% 30.45 in 10.0 mi Calm Calm - N/A   Clear
11:55 PM 24.8 °F - 24.8 °F 100% 30.45 in 10.0 mi Calm Calm - N/A   Clear